Showing default

BEIDOU 3 G4, 56564

Orbit data source: Space-Track

BEIDOU 3 G4, 56564 is a payload satellite owned by CNSA (CN) in GEO that was launched on Wed, 17 May 2023 UTC via a CHANG ZHENG 3B launch vehicle from the Xichang Space Center, China (XSC). Payload-class satellites include a variety of spacecraft equipped with specific instruments for various scientific and technological missions. These include communications satellites like Starlink; space stations such as the ISS; scientific satellites like the Hubble; Earth observation satellites from companies like Planet Labs, Umbra, and HawkEye 360; GPS; miniature CubeSats for education and research; and military/defense satellites.

Not visible in the next 10 days
Identifier
56564, 2023-066A
Orbit
GEO
Country
Flag of CNCN / PRC
Related business
Manufacturer
CAST
Mission
Operational Defense Navigation
Bus & Motor
DFH-3B, FY-25
Mass
~3,060 kg wet, 1,700 kg dry
Launch date (UTC)
2023-05-17 (3 years ago)
Launch vehicle
CHANG ZHENG 3B
Launch site
Xichang Space Center, China (XSC)
Object type
Payload
Rocket body
Debris
Shape & HBR
Box + 2 Pan, 9.0 m
Radar Cross Section
13.998 m², Large (>1 m²)

Expand to show TLE details & history
Last TLE update: 1 week ago

TLE from 1 week ago
0 BEIDOU 3 G4
1 56564U 23066A   26087.21580603 -.00000301  00000-0  00000-0 0  9996
2 56564   0.6066 314.6390 0002289 165.2828 283.4567  1.00272952 10582
Epoch: 2026-03-28T05:10Z
TLE epoch observation values (Epoch: 2026-03-28T05:10:45.640Z)
Latitude
0.59158°
Longitude
140.0485°
Altitude
35,783.473 km
Speed
3.075 km/s
True Right ascension
02h 53m 30s
True Declination
0° 35' 28"
Sunlit
Object was in daylight at epoch
Visualization orbit readout
Latitude
Unknown
Longitude
Unknown
Altitude
Unknown
Speed
Unknown
Apparent Right ascension
Unknown
Apparent Declination
Unknown
Sunlit
N/A
Visualization observer readout
Local Sidereal Time
09:50:00
Azimuth
Unknown
Elevation
Unknown
Doppler factor
Unknown
Orbital elements
Apogee altitude
35,796.99 km
Perigee altitude
35,777.686 km
Semi-major axis
42,165.475 km
Eccentricity
0.00023
Inclination
0.6066°
RAAN
314.639°
Arg. of periapsis
165.2828°
True anomaly
283.43119°
Mean anomaly
283.4567°
Eccentric anomaly
283.44394°
Mean motion
0.25067 °/min
Orbital period
1,436.13 mins
BSTAR
0
Loading maneuver chart data...
Computing Atmospheric mass density...
Loading historical data...
Loading historical data...
Loading historical data...
Loading historical data...
Loading historical data...
Loading historical data...
Loading historical data...
Other satellites on launch #66 in the year 2023 (2023-05-17 UTC)

Documentation

Showing up to 5 results
|